Location: Unspecified
(0.0000°N, 0.0000°E)
Time: 18:59:46
(UTC+00:00)

Vanguard 2 Rocket - Pass Details

Date: 18 January 2020
Orbit: 554 x 3327 km, 32.9° (Epoch: 20 February)

Event Time Altitude Azimuth Distance (km) Brightness Sun altitude
Rises 16:52:33 0° 283° (WNW) 7,138 12.4 18.2°
Reaches altitude 10° 16:57:50 10° 276° (W) 6,245 12.5 16.9°
Maximum altitude 17:15:48 38° 214° (SW) 4,104 11.1 12.8°
Drops below altitude 10° 17:30:18 10° 150° (SSE) 5,045 10.6 9.4°
Sets 17:34:07 0° 142° (SE) 5,697 10.8 8.5°
